Preview of NWS' New Version of Forecast
This preview is not operational and should not be used for support decisions.
Latest weather observations around

Everett Snohomish County (KPAE)

Using English Units (Switch to International System of Units)
Date/ Time (PST) Wind (mph) Vis. (mi) Weather Sky Cond. Temp (°F) Rel. Humidity Wind Chill (°F) Heat Index (°F) Pressure Precip. (in)
Air Dwpt 6 hour Altimeter (inHg) Sea level (inHg) 1 hr 3 hr 6 hr
Max Min
Feb 19 18:53 Calm 10 Clear CLR 30 12     47%     30.19 30.21      
Feb 19 17:53 WNW 3 10 Clear CLR 30 10     43% 27   30.19 30.21      
Feb 19 16:53 WNW 6 10 Clear CLR 33 11     39% 28   30.19 30.21      
Feb 19 15:53 NNW 8 10 Clear CLR 34 10     36% 27   30.19 30.21      
Feb 19 14:53 NW 9 10 Clear CLR 33 10     38% 25   30.19 30.22      
Feb 19 13:53 NW 9 10 Clear CLR 32 9     38% 24   30.2 30.22      
Feb 19 12:53 W 10 10 Clear CLR 33 10     38% 25   30.21 30.23      
Feb 19 11:53 NW 9 10 Clear CLR 32 13     45% 24   30.22 30.24      
Feb 19 10:53 NNW 8 10 Clear CLR 31 12     45% 23   30.21 30.23      
Feb 19 09:53 NW 10 10 Clear CLR 30 11     44% 21   30.2 30.22      
Feb 19 08:53 NNW 11 10 Clear CLR 28 11     48% 18   30.18 30.2      
Feb 19 07:53 NW 6 10 Clear CLR 27 11     50% 20   30.17 30.19      
Feb 19 06:53 NW 7 10 Clear CLR 27 12     53% 19   30.14 30.16      
Feb 19 05:53 NW 7 10 Clear CLR 27 12     53% 19   30.12 30.14      
Feb 19 04:53 NNW 10 10 Cloudy BKN060 OVC075 28 15     58% 19   30.1 30.11      
Feb 19 03:53 NW 13 10 Cloudy BKN060 OVC070 29 12     49% 19   30.07 30.09      
Feb 19 02:53 NW 10 10 Cloudy FEW050 BKN065 OVC075 29 15     56% 20   30.05 30.06      
Feb 19 01:53 NW 8 10 Cloudy FEW047 OVC060 29 15     56% 21   30.02 30.04      
Feb 19 00:53 NW 9 10 Cloudy FEW045 OVC055 29 18     63% 20   30 30.02      
Feb 18 23:53 NW 9 10 Cloudy OVC043 29 18     63% 20   29.99 30.01      
Feb 18 22:53   10 Cloudy OVC050 29 17     61%     29.95 29.97      
Feb 18 21:53 WNW 15 10 Cloudy OVC055 29 18     63% 18   29.93 29.95      
Feb 18 20:53 W 11 10 Mostly Cloudy BKN060 29 19     66% 19   29.91 29.93      
Feb 18 19:53 WNW 15 10 Mostly Clear FEW090 29 21     72% 18   29.88 29.9      
Feb 18 18:53 W 10 10 Clear CLR 30 22     71% 21   29.87 29.89      
Feb 18 17:53 WNW 13 10 Clear CLR 31 22     69% 21   29.84 29.85      
Feb 18 16:53 WNW 13 10 Clear CLR 33 23     66% 24   29.81 29.83      
Feb 18 15:53 WNW 15 10 Clear CLR 34 23     64% 24   29.79 29.8     0
Feb 18 14:53 WNW 13 10 Clear CLR 35 26     69% 26   29.76 29.77      
Feb 18 13:53   10 Partly Cloudy SCT023 36 29     75%     29.75 29.76      
Feb 18 12:53 NW 14 10 Mostly Cloudy SCT006 BKN011 BKN016 36 30     79% 27   29.73 29.75 0 0  
Feb 18 12:44 NW 8 10 Mostly Cloudy SCT006 BKN011 BKN016 36 32     85% 30   29.73   0    
Feb 18 11:55 NW 10 3 Light Snow and Fog/Mist OVC002 33 33     100% 25   29.72   0    
Feb 18 11:53 NW 8 0.5 Light Snow and Fog OVC002 33 33     100% 26   29.72 29.74 0    
Feb 18 11:26 WNW 9 0.5 Cloudy BKN002 BKN009 OVC013 34 33     96% 27   29.72   0    
Feb 18 11:17 NW 9 1.5 Cloudy BKN002 BKN009 OVC013 34 32     92% 27   29.72   0    
Feb 18 10:53 WNW 7 10 Cloudy OVC007 34 32     92% 28   29.7 29.72      
Feb 18 10:18 NNW 6 10 Cloudy BKN005 OVC045 35 33     92% 30   29.69        
Feb 18 10:01 NNW 3 10 Cloudy SCT004 OVC046 35 33     92% 32   29.69        
Feb 18 09:53 3 10 Cloudy BKN004 OVC048 34 32     92% 31   29.69 29.7 0   0
Feb 18 09:33 NNW 5 10 Cloudy SCT003 OVC047 34 33     96% 30   29.68   0    
Feb 18 09:01 N 7 2 Light Snow and Fog/Mist BKN003 OVC055 34 33     96% 28   29.67   0    
Feb 18 08:53 N 8 2 Light Snow and Fog/Mist SCT003 BKN009 OVC040 33 32     96% 26   29.67 29.68 0    
Feb 18 08:07 Calm 1.5 Fog/Mist FEW014 BKN021 OVC042 33 31     92%     29.65   0    
Feb 18 07:53 Calm 1.5 Light Snow and Fog/Mist FEW006 OVC014 33 33     100%     29.65 29.66 0    
Feb 18 07:49 Calm 1.5 Light Snow and Fog/Mist SCT006 OVC012 34 32     93%     29.65   0    
Feb 18 07:27 ENE 3 0.5 Light Snow FEW002 BKN007 OVC015 32 32     100% 29   29.64   0    
Feb 18 07:02 NNE 5 1.5 Fog/Mist BKN002 OVC017 32 31     96% 27   29.63        
Feb 18 06:53 5 10 Cloudy BKN003 OVC014 32 31     96% 27   29.63 29.65 0 0  
Feb 18 06:40 NNW 6 10 Cloudy FEW003 OVC014 32 31     96% 26   29.63   0    
Feb 18 06:34 N 7 8 Cloudy OVC015 33 31     92% 27   29.63   0    
Feb 18 06:03 NNE 8 10 Unknown Precipitation FEW008 BKN014 OVC023 33 31     92% 26   29.63   0    
Feb 18 05:53 NNE 6 10 Cloudy BKN014 OVC022 33 31     92% 28   29.62 29.64      
Feb 18 05:51 NNE 6 10 Mostly Cloudy BKN014 BKN022 34 32     93% 29   29.63        
Feb 18 04:53 NNE 6 10 Cloudy FEW001 BKN017 OVC022 33 32     96% 28   29.61 29.62      
Feb 18 04:34 N 8 6 Fog/Mist FEW001 BKN016 OVC022 33 32     96% 26   29.61        
Feb 18 03:53 NNE 6 10 Cloudy FEW005 OVC012 33 32     96% 28   29.61 29.62     0
Feb 18 03:20 N 11 10 Cloudy BKN014 OVC020 34 32     92% 26   29.61        
Feb 18 02:53 Calm 10 Cloudy OVC020 34 33     96%     29.6 29.61      
Feb 18 01:53 E 7 10 Cloudy BKN020 OVC024 34 33     96% 28   29.6 29.61 0    
Feb 18 00:53 ENE 10 10 Light Rain SCT003 BKN018 OVC023 33 33     100% 25   29.6 29.61 0 0  
Feb 18 00:15 ESE 10 6 Light Snow and Fog/Mist BKN003 OVC021 33 32     96% 25   29.61   0    
Feb 18 00:03 E 8 3 Light Snow and Fog/Mist FEW003 BKN007 OVC022 33 32     96% 26   29.61   0    
Feb 17 23:57 NE 10 2 Light Snow and Fog/Mist SCT007 OVC022 33 32     96% 25   29.61   0    
Feb 17 23:53 ENE 10 1.75 Light Snow and Fog/Mist BKN007 OVC021 33 32     96% 25   29.61 29.62 0    
Feb 17 23:23 E 7 0.75 Light Snow and Fog/Mist FEW003 OVC009 33 32     96% 27   29.6   0    
Feb 17 23:09 E 8 1.75 Light Snow and Fog/Mist FEW004 OVC013 34 32     92% 27   29.6   0    
Feb 17 22:53 E 7 2 Light Snow and Fog/Mist OVC013 35 33     92% 29   29.59 29.6 0    
Feb 17 22:44 E 6 2.5 Light Snow and Fog/Mist OVC013 35 33     92% 30   29.59   0    
Feb 17 21:53 5 10 Light Rain FEW020 OVC027 39 32     76% 36   29.58 29.59 0   0
Feb 17 21:43 6 10 Light Rain FEW006 SCT012 OVC027 39 34     82% 35   29.58   0    
Feb 17 21:34 5 10 Cloudy FEW006 BKN012 OVC027 38 36     92% 34   29.58        
Feb 17 21:26 N 5 10 Cloudy BKN006 OVC012 38 36     92% 34   29.57        
Feb 17 21:00 NNW 9 10 Cloudy SCT006 OVC014 39 36     89% 33   29.57        
Feb 17 20:53 NNW 8 10 Cloudy OVC014 41 37     86% 36   29.56 29.57      
Feb 17 19:53   10 Cloudy BKN016 OVC023 42 38     85%     29.53 29.54      
Feb 17 18:53 SSE 13 10 Cloudy BKN020 OVC027 42 37     82% 35   29.55 29.56      
Feb 17 18:38 SSE 15 10 Cloudy BKN022 OVC085 42 37     82% 35   29.55        
Feb 17 17:53 SSE 14 10 Cloudy FEW032 OVC085 43 35     73% 36   29.56 29.56      
Feb 17 17:05 3 10 Cloudy BKN024 BKN036 OVC050 44 39     82% 43   29.57        
Feb 17 16:53 ENE 8 10 Mostly Cloudy SCT027 BKN037 BKN050 44 39     82% 40   29.58 29.58      
Feb 17 16:48 ENE 8 10 Cloudy SCT029 BKN036 OVC050 45 37     76% 40   29.58        
Feb 17 16:36 NNE 6 10 Cloudy BKN029 BKN038 OVC050 44 38     79% 41   29.58        
Feb 17 16:05 Calm 10 Mostly Cloudy SCT030 BKN037 BKN080 45 37     74%     29.58        
Feb 17 15:53 Calm 10 Cloudy BKN028 OVC035 45 37     74%     29.57 29.58     0
Feb 17 15:50 Calm 10 Cloudy BKN028 BKN033 OVC041 45 37     76%     29.57        
Feb 17 12:53 NNW 6 10 Cloudy SCT006 BKN009 OVC027 44 43     96% 41   29.54 29.55 0 0  
Feb 17 12:27 WNW 6 5 Light Rain and Fog/Mist SCT006 BKN009 OVC027 44 43     96% 41   29.55   0    
Feb 17 12:00 NW 8 4 Light Rain and Fog/Mist FEW009 BKN025 OVC032 44 42     93% 40   29.56   0    
Feb 17 11:53 7 6 Rain and Fog/Mist BKN015 BKN027 OVC037 45 42     90% 41   29.57 29.57 0    
Feb 17 11:47 W 11 1.75 Heavy Rain BKN009 BKN055 OVC085 45 43     93% 39   29.57   0    
Feb 17 10:53   10 Cloudy BKN009 OVC017 49 43     80%     29.55 29.55      
Feb 17 10:00   4 Fog/Mist OVC009 46 44     93%     29.55        
Feb 17 09:53   2.5 Fog/Mist OVC009 45 44     97%     29.56 29.56 0   0
Feb 17 09:24   2.5 Light Rain and Fog/Mist BKN006 OVC012 44 42     93%     29.56   0    
Feb 17 08:53 SE 20 10 Cloudy and Windy BKN006 OVC014 43 41     93% 34   29.62 29.63      
Feb 17 08:48 SE 18 10 Cloudy BKN008 OVC014 43 41     93% 35   29.63        
Feb 17 07:53   10 Cloudy BKN014 OVC065 43 40     89%     29.71 29.71      
Feb 17 06:53   10 Cloudy BKN014 BKN038 OVC050 42 39     89%     29.77 29.78 0 0  
Feb 17 05:53   10 Light Rain OVC048 43 40     89%     29.82 29.83 0    
Feb 17 05:33   9 Light Rain SCT013 OVC038 43 40     89%     29.85   0    
Feb 17 04:53 SSE 15 10 Cloudy BKN012 BKN027 OVC065 44 42     93% 37   29.88 29.88 0    
Feb 17 04:34 SSE 16 10 Light Rain SCT010 BKN015 OVC034 44 42     93% 37   29.9   0    
Feb 17 03:53 SSE 16 10 Light Rain BKN010 OVC015 44 42     93% 37   29.95 29.96 0   0
Feb 17 03:38   10 Light Rain OVC009 44 42     93%     29.94   0    
Feb 17 02:53 SSE 14 10 Cloudy SCT008 BKN013 OVC029 44 42     93% 37   30 30.01      
Feb 17 02:49 SSE 11 10 Cloudy FEW008 BKN011 OVC027 45 43     93% 39   30        
Feb 17 01:53 SSE 10 10 Cloudy FEW009 BKN022 OVC028 43 42     97% 37   30.04 30.05      
Feb 17 01:34 SSE 8 10 Cloudy SCT007 OVC023 43 42     97% 38   30.05        
Feb 17 01:06 SSE 10 10 Cloudy OVC006 43 42     97% 37   30.07        
Feb 17 00:53 SSE 10 10 Cloudy OVC003 43 42     97% 37   30.08 30.08   0  
Feb 17 00:41 S 11 10 Cloudy OVC003 43 42     97% 37   30.08        
Feb 17 00:21 SSE 11 3 Fog/Mist OVC001 42 42     100% 36   30.09        
Feb 16 23:53 SSE 7 1.75 Fog/Mist OVC002 42 41     96% 38   30.1 30.11 0    
Feb 16 23:45 SSE 6 3 Fog/Mist OVC003 41 41     100% 37   30.1   0    
Feb 16 23:34 SSE 3 2.5 Light Rain and Fog/Mist BKN003 OVC008 42 40     92% 40   30.1   0    
Feb 16 23:09 Calm 5 Light Rain and Fog/Mist OVC008 42 40     92%     30.11   0    
Feb 16 22:53 3 10 Cloudy OVC010 42 39     89% 40   30.11 30.12 0    
Feb 16 22:18 3 10 Light Rain BKN014 OVC028 41 39     93% 39   30.12   0    
Feb 16 21:53 ESE 3 10 Cloudy BKN030 OVC037 41 38     89% 39   30.13 30.14     0
Feb 16 20:53 E 6 10 Cloudy SCT018 OVC041 42 37     82% 38   30.15 30.16      
Feb 16 19:53 NNE 6 10 Cloudy OVC018 42 38     85% 38   30.16 30.17      
Feb 16 19:33 NNE 6 10 Cloudy BKN018 OVC048 42 38     85% 38   30.17        
Jun 11 21:53 5 10 Clear CLR 56 49     77%     30 30      
Jun 11 20:53 NW 5 10 Clear   58 48     70%     30 29.99      
Jun 11 19:53 NW 6 10 Clear   63 45     52%     30 29.99      
Jun 11 11:53 WSW 7 10 Clear CLR 59 51     75%     30.05 30.05      
Jun 10 23:53 N 6 10 Clear   54 48     80%     29.95 29.95      
Jun 10 16:53 NW 7 10 Clear CLR 61 43     52%     29.87 29.87      
Notice The following observation data may not be complete
Jun 10 02:39   10 Cloudy BKN015 OVC080          %              
Jun 10 01:48   10 Cloudy FEW016 BKN070 OVC085 52 46     82%     29.87        
Jun 09 11:10 Calm 10 Cloudy FEW025 BKN031 OVC080 55 46     72%     29.89        
Jun 09 06:53 ESE 9 10 Cloudy OVC055 50 46     86% 46   29.91 29.91      
Jun 09 02:53 SSE 8 10 Mostly Cloudy BKN070 51 45     79%     29.95 29.94      
Jun 08 07:29 SSE 8 8 Light Rain SCT004 BKN009 BKN045 56 54     93%     29.64   0    
Jun 06 05:53 WNW 3 10 Clear CLR 52 48     86%     30.03 30.02      
Jun 05 22:53 5 10 Clear CLR 53 47     80%     30.08 30.08      
Jun 05 18:53 NW 7 10 Clear CLR 65 47     52%     30.07 30.07